カタログに戻る

TITAN 3C TRANSTAGE R/B

運用中GEO
NORAD 12371·ROCKET BODY·🇺🇸 United States

打ち上げ Mar 16, 1981 から Cape Canaveral Space Force Station

Loading…

TLE

最新Source: Space-Track

元期: Sep 13, 2026, 21:28 UTC

1 12371U 81025C   26256.89450418  .00000010  00000-0  00000-0 0  9991
2 12371   6.4693 298.1623 0058179 327.9297  31.6031  1.01333555 27946

AllMySatでTITAN 3C TRANSTAGE R/Bをリアルタイム追跡

Download on the App Store